Regional Weather Roundup
Issued by NWS Albany, NY

Home | Current Version | Previous Version | Text Only | Print | Product List | Glossary On
Versions: 1 2 3 4 5 6 7 8 9 10 11 12 13 14 15 16 17 18 19 20 21 22 23 24 25 26 27 28 29 30 31 32 33 34 35 36 37 38 39 40 41 42 43 44 45 46 47 48 49 50
000
ASUS41 KALY 060310
RWRALY

NEW YORK STATE HOURLY WEATHER ROUNDUP
NATIONAL WEATHER SERVICE ALBANY NY
1100 PM EDT TUE MAY 05 2015

NOTE: "FAIR" INDICATES FEW OR NO CLOUDS BELOW 12,000 FEET WITH NO
SIGNIFICANT WEATHER AND/OR NO OBSTRUCTIONS TO VISIBILITY.

NYZ032-033-038>043-046>054-057>066-NYZ062>081-060400-
EAST


CITY           SKY/WX    TMP DP  RH WIND       PRES   REMARKS
ALBANY         CLOUDY    64  38  38 N5        30.23R
GLENS FALLS    CLOUDY    59  41  51 N9        30.24R
POUGHKEEPSIE   MOCLDY    69  43  38 N3        30.20R
NEWBURGH       CLEAR     70  45  40 E12       30.23R
MONTGOMERY     CLOUDY    69  44  40 NE8       30.21R
WHITE PLAINS   MOCLDY    64  53  67 NW6       30.19R
ISLIP          MOCLDY    61  52  72 S6        30.17S
NEW YORK CITY  MOCLDY    68  53  58 S3        30.17S
CENTRAL PARK   PTCLDY    71  52  50 CALM      30.20F
$$

NYZ005>009-017-018-044>046-055-056-060400-
CENTRAL


CITY           SKY/WX    TMP DP  RH WIND       PRES   REMARKS
FULTON         CLOUDY    51  39  63 CALM      30.27S
SYRACUSE       CLOUDY    58  39  49 NW3       30.27R
ROME           CLOUDY    55  42  61 CALM      30.27R
ELMIRA         LGT RAIN  59  57  93 CALM      30.28R FOG
BINGHAMTON     CLOUDY    62  43  49 N5        30.27S
MONTICELLO     CLOUDY    64  39  39 N3        30.26S
$$

NYZ026>034-041>043-060400-
NORTH


CITY           SKY/WX    TMP DP  RH WIND       PRES   REMARKS
WATERTOWN      CLOUDY    47  42  83 CALM      30.27R
FORT DRUM      NOT AVBL
MASSENA        PTCLDY    48  39  71 SW3       30.25S
SARANAC LAKE   MOCLDY    40  35  83 CALM      30.26S
PLATTSBURGH    MOCLDY    55  36  48 CALM      30.24R
$$

NYZ001>004-010>016-019>021-060400-
WEST


CITY           SKY/WX    TMP DP  RH WIND       PRES   REMARKS
NIAGARA FALLS  CLOUDY    55  50  83 N5        30.28R
BUFFALO        CLOUDY    56  53  90 SW5       30.28S FOG
DUNKIRK        LGT RAIN  53  51  93 NE7       30.29R FOG
JAMESTOWN      CLOUDY    54  50  87 E7        30.29R
WELLSVILLE     LGT RAIN  56  52  86 CALM      30.31S
ROCHESTER      CLOUDY    57  44  62 SW3       30.29R
PENN YAN       LGT RAIN  56  52  86 CALM      30.28S
$$

             KEY
       WCI = WIND CHILL INDEX
       VSB = VISIBILITY
       HX  = HEAT INDEX
$$


USA.gov is the U.S. government's official web portal to all federal, state and local government web resources and services.